Previsão horária em Jyllinge

Hoje, 22 Junho, Terça-feira

Tempo Temperatura Precipitação Vento Pressão Humidade
00:00 +13°C° 0 mm 5 m/s 755 mmHg 80%
01:00 +13°C° 0 mm 5 m/s 755 mmHg 78%
02:00 +13°C° 0 mm 4 m/s 755 mmHg 81%
03:00 +12°C° 0 mm 4 m/s 755 mmHg 83%
04:00 +11°C° 0 mm 4 m/s 755 mmHg 86%
05:00 +12°C° 0 mm 4 m/s 756 mmHg 81%
06:00 +13°C° 0 mm 4 m/s 756 mmHg 77%
07:00 +14°C° 0 mm 4 m/s 756 mmHg 72%
08:00 +15°C° 0 mm 5 m/s 756 mmHg 69%
09:00 +15°C° 0 mm 5 m/s 757 mmHg 66%
10:00 +16°C° 0 mm 6 m/s 757 mmHg 63%
11:00 +17°C° 0 mm 6 m/s 757 mmHg 63%
12:00 +17°C° 0 mm 6 m/s 757 mmHg 62%
13:00 +19°C° 0 mm 6 m/s 757 mmHg 62%
14:00 +19°C° 0 mm 5 m/s 757 mmHg 63%
15:00 +19°C° 0 mm 5 m/s 758 mmHg 63%
16:00 +20°C° 0 mm 5 m/s 758 mmHg 64%
17:00 +19°C° 0 mm 5 m/s 758 mmHg 68%
18:00 +19°C° 0 mm 4 m/s 758 mmHg 72%
19:00 +18°C° 0 mm 4 m/s 758 mmHg 77%
20:00 +17°C° 0 mm 4 m/s 759 mmHg 80%
21:00 +14°C° 0 mm 4 m/s 759 mmHg 84%
22:00 +13°C° 0 mm 3 m/s 759 mmHg 87%
23:00 +13°C° 0 mm 3 m/s 760 mmHg 89%

Amanhã, 23 Junho, Quarta-feira

Tempo Temperatura Precipitação Vento Pressão Humidade
00:00 +13°C° 0 mm 3 m/s 760 mmHg 91%
01:00 +13°C° 0 mm 3 m/s 760 mmHg 92%
02:00 +13°C° 0 mm 3 m/s 760 mmHg 92%
03:00 +13°C° 0 mm 3 m/s 760 mmHg 92%
04:00 +14°C° 0 mm 3 m/s 760 mmHg 91%
05:00 +14°C° 0 mm 4 m/s 761 mmHg 88%
06:00 +15°C° 0 mm 4 m/s 761 mmHg 84%
07:00 +17°C° 0 mm 4 m/s 761 mmHg 81%
08:00 +17°C° 0 mm 4 m/s 762 mmHg 78%
09:00 +18°C° 0 mm 3 m/s 762 mmHg 75%
10:00 +19°C° 0 mm 3 m/s 762 mmHg 72%
11:00 +19°C° 0 mm 3 m/s 762 mmHg 70%
12:00 +20°C° 0 mm 3 m/s 762 mmHg 67%
13:00 +20°C° 0 mm 3 m/s 762 mmHg 65%
14:00 +20°C° 0 mm 3 m/s 762 mmHg 65%
15:00 +20°C° 0 mm 3 m/s 762 mmHg 65%
16:00 +20°C° 0 mm 3 m/s 762 mmHg 65%
17:00 +19°C° 0 mm 3 m/s 762 mmHg 68%
18:00 +19°C° 0 mm 3 m/s 762 mmHg 71%
19:00 +18°C° 0 mm 3 m/s 762 mmHg 73%
20:00 +17°C° 0 mm 3 m/s 762 mmHg 78%
21:00 +17°C° 0 mm 3 m/s 763 mmHg 82%
22:00 +16°C° 0 mm 3 m/s 763 mmHg 87%
23:00 +14°C° 0 mm 4 m/s 763 mmHg 85%

Depois de amanhã, 24 Junho, Quinta-feira

Tempo Temperatura Precipitação Vento Pressão Humidade
00:00 +14°C° 0 mm 4 m/s 763 mmHg 83%
01:00 +13°C° 0 mm 4 m/s 763 mmHg 81%
02:00 +13°C° 0 mm 4 m/s 763 mmHg 78%
03:00 +13°C° 0 mm 4 m/s 763 mmHg 75%
04:00 +12°C° 0 mm 4 m/s 763 mmHg 73%
05:00 +13°C° 0 mm 4 m/s 763 mmHg 71%
06:00 +14°C° 0 mm 4 m/s 763 mmHg 69%
07:00 +15°C° 0 mm 4 m/s 763 mmHg 67%
08:00 +17°C° 0 mm 4 m/s 763 mmHg 63%
09:00 +18°C° 0 mm 4 m/s 763 mmHg 59%
10:00 +19°C° 0 mm 3 m/s 763 mmHg 55%
11:00 +19°C° 0 mm 3 m/s 763 mmHg 54%
12:00 +20°C° 0 mm 3 m/s 763 mmHg 53%
13:00 +20°C° 0 mm 3 m/s 762 mmHg 52%
14:00 +20°C° 0 mm 3 m/s 762 mmHg 52%
15:00 +20°C° 0 mm 3 m/s 762 mmHg 52%
16:00 +21°C° 0 mm 3 m/s 762 mmHg 53%
17:00 +20°C° 0 mm 2 m/s 762 mmHg 58%
18:00 +19°C° 0 mm 2 m/s 762 mmHg 63%
19:00 +19°C° 0 mm 2 m/s 761 mmHg 68%
20:00 +17°C° 0 mm 2 m/s 761 mmHg 73%
21:00 +16°C° 0 mm 2 m/s 761 mmHg 78%
22:00 +15°C° 0 mm 2 m/s 761 mmHg 83%
23:00 +15°C° 0 mm 2 m/s 761 mmHg 84%

25 Junho, Sexta-feira

Tempo Temperatura Precipitação Vento Pressão Humidade
00:00 +14°C° 0 mm 2 m/s 761 mmHg 86%
01:00 +14°C° 0 mm 2 m/s 761 mmHg 88%
02:00 +14°C° 0 mm 2 m/s 761 mmHg 89%
03:00 +14°C° 0 mm 2 m/s 761 mmHg 91%
04:00 +13°C° 0 mm 3 m/s 761 mmHg 92%
05:00 +14°C° 0 mm 3 m/s 761 mmHg 87%
06:00 +17°C° 0 mm 3 m/s 761 mmHg 83%
07:00 +18°C° 0 mm 3 m/s 761 mmHg 78%
08:00 +19°C° 0 mm 3 m/s 761 mmHg 74%
09:00 +19°C° 0 mm 4 m/s 761 mmHg 69%
10:00 +20°C° 0 mm 4 m/s 761 mmHg 65%
11:00 +20°C° 0 mm 4 m/s 761 mmHg 63%
12:00 +21°C° 0 mm 3 m/s 761 mmHg 62%
13:00 +21°C° 0 mm 3 m/s 761 mmHg 60%
14:00 +21°C° 0 mm 3 m/s 761 mmHg 61%
15:00 +21°C° 0 mm 3 m/s 761 mmHg 62%
16:00 +22°C° 0 mm 3 m/s 761 mmHg 63%
17:00 +21°C° 0 mm 3 m/s 760 mmHg 66%
18:00 +21°C° 0 mm 3 m/s 760 mmHg 69%
19:00 +20°C° 0 mm 3 m/s 760 mmHg 73%
20:00 +19°C° 0 mm 3 m/s 760 mmHg 78%
21:00 +18°C° 0 mm 2 m/s 760 mmHg 82%
22:00 +17°C° 0 mm 2 m/s 761 mmHg 87%
23:00 +17°C° 0 mm 2 m/s 761 mmHg 88%

26 Junho, Sábado

Tempo Temperatura Precipitação Vento Pressão Humidade
00:00 +17°C° 0 mm 2 m/s 761 mmHg 89%
01:00 +17°C° 0 mm 2 m/s 761 mmHg 90%
02:00 +17°C° 0 mm 2 m/s 761 mmHg 90%
03:00 +17°C° 0 mm 2 m/s 761 mmHg 91%
04:00 +18°C° 0 mm 1 m/s 761 mmHg 91%
05:00 +18°C° 0.1 mm 1 m/s 761 mmHg 90%
06:00 +18°C° 0.1 mm 1 m/s 761 mmHg 89%
07:00 +19°C° 0.1 mm 1 m/s 761 mmHg 87%
08:00 +19°C° 0.2 mm 1 m/s 761 mmHg 88%
09:00 +19°C° 0.2 mm 1 m/s 762 mmHg 88%
10:00 +19°C° 0.2 mm 1 m/s 762 mmHg 88%
11:00 +18°C° 0.4 mm 2 m/s 762 mmHg 89%
12:00 +17°C° 0.4 mm 2 m/s 762 mmHg 91%
13:00 +17°C° 0.4 mm 2 m/s 762 mmHg 93%
14:00 +17°C° 0.1 mm 2 m/s 762 mmHg 92%
15:00 +18°C° 0.1 mm 3 m/s 762 mmHg 91%
16:00 +18°C° 0.1 mm 3 m/s 762 mmHg 90%
17:00 +18°C° 0.1 mm 3 m/s 762 mmHg 90%
18:00 +18°C° 0.1 mm 3 m/s 762 mmHg 90%
19:00 +17°C° 0.1 mm 2 m/s 761 mmHg 90%
20:00 +17°C° 0.1 mm 3 m/s 761 mmHg 90%
21:00 +17°C° 0.1 mm 3 m/s 761 mmHg 90%
22:00 +17°C° 0.1 mm 3 m/s 761 mmHg 91%
23:00 +17°C° 0.3 mm 3 m/s 761 mmHg 91%

27 Junho, Domingo

Tempo Temperatura Precipitação Vento Pressão Humidade
00:00 +17°C° 0.3 mm 3 m/s 761 mmHg 91%
01:00 +17°C° 0.3 mm 3 m/s 761 mmHg 91%
02:00 +17°C° 0.4 mm 3 m/s 761 mmHg 91%
03:00 +17°C° 0.4 mm 3 m/s 760 mmHg 92%
04:00 +17°C° 0.4 mm 3 m/s 760 mmHg 92%
05:00 +17°C° 0.2 mm 3 m/s 760 mmHg 91%
06:00 +18°C° 0.2 mm 3 m/s 760 mmHg 91%
07:00 +18°C° 0.2 mm 3 m/s 760 mmHg 90%
08:00 +19°C° 0.1 mm 3 m/s 760 mmHg 86%
09:00 +20°C° 0.1 mm 3 m/s 760 mmHg 82%
10:00 +20°C° 0.1 mm 3 m/s 760 mmHg 79%
11:00 +21°C° 0 mm 3 m/s 760 mmHg 75%
12:00 +21°C° 0 mm 3 m/s 760 mmHg 71%
13:00 +21°C° 0 mm 3 m/s 760 mmHg 68%
14:00 +21°C° 0 mm 3 m/s 760 mmHg 67%
15:00 +22°C° 0 mm 3 m/s 760 mmHg 66%
16:00 +22°C° 0 mm 3 m/s 760 mmHg 65%
17:00 +21°C° 0 mm 3 m/s 760 mmHg 67%
18:00 +21°C° 0 mm 3 m/s 760 mmHg 70%
19:00 +20°C° 0 mm 2 m/s 760 mmHg 73%
20:00 +19°C° 0 mm 2 m/s 760 mmHg 77%
21:00 +19°C° 0 mm 1 m/s 760 mmHg 82%
22:00 +18°C° 0 mm 1 m/s 760 mmHg 86%
23:00 +16°C° 0 mm 1 m/s 760 mmHg 86%
Mostrar mais

Necessitamos do seu Consentimento

A Meteoprog e os seus Fornecedores de Serviços podem armazenar e aceder a dados pessoais como cookies, identificadores do dispositivo ou outras tecnologias semelhantes existentes no seu dispositivo e processar estes dados para personalizar conteúdos e anúncios, assim como funcionalidades nas redes sociais e análise de tráfego.

  • Armazenar e/ou aceder a informações no seu dispositivo

    Os cookies, identificadores do dispositivo ou outras informações podem ser armazenados ou acedidos no seu dispositivo, para os fins acima indicados.

  • Anúncios e conteúdos personalizados, medição de anúncios e conteúdos, dados sobre o público-alvo e desenvolvimento de produtos

    Os anúncios e os conteúdos podem ser personalizados com base num perfil. Podem ser adicionados dados adicionais para uma maior personalização dos anúncios e dos conteúdos. A eficácia dos anúncios e dos conteúdos pode ser medida. Podem ser obtidas informações sobre o público que visualizou os anúncios e os conteúdos. Estes dados podem ser usados para desenvolver ou melhorar sistemas, softwares ou a experiência do utilizador.

Ao clicar em "Eu concordo”, permitirá o uso de cookies, identificadores do dispositivo e web beacons mencionados ou outras tecnologias semelhantes. As configurações do navegador do seu dispositivo podem ser alteradas.

Para certos fins, podem ser invocados interesses legítimos ao invés de consentimento. Pode ler mais informação sobre este assunto na nossa Política de Privacidade e Cookies.